Location: Moscow
(55.7500°N, 37.5830°E)
Time: 11:03:48
(UTC+03:00)

Vanguard 3 - Pass Details

Date: 09 December 2021
Orbit: 508 x 3260 km, 33.3° (Epoch: 19 January)

Event Time Altitude Azimuth Distance (km) Brightness Sun altitude
Rises 07:47:42 0° 267° (W) 7,231 11.5 -7.5°
Reaches altitude 10° 07:54:20 10° 255° (WSW) 6,120 11.2 -6.7°
Maximum altitude 08:06:31 22° 214° (SW) 4,637 11.0 -5.3°
Drops below altitude 10° 08:16:20 10° 172° (S) 4,804 11.8 -4.2°
Sets 08:20:41 0° 157° (SSE) 5,369 12.5 -3.7°
